Location: Gairloch Mountain Observatory
(46.1383°N, 60.9640°W)
Time: 07:12:54
(UTC-03:00)

CENTAUR R/B - Visible Passes

Search period start: 26 August 2016 00:00
Search period end: 05 September 2016 00:00
Orbit: 851 x 1337 km, 63.5° (Epoch: 22 July)

Date Brightness Start Highest point End Pass type
(mag) Time Alt. Az. Time Alt. Az. Time Alt. Az.
26 Aug 3.6 04:18:23 14° S 04:23:10 39° ESE 04:29:24 10° NE visible
27 Aug 4.3 03:32:04 15° SSE 03:35:26 23° ESE 03:40:29 10° ENE visible
27 Aug 2.6 05:19:17 11° SW 05:25:14 76° NW 05:32:20 10° NE visible
28 Aug 4.7 02:45:43 11° ESE 02:47:52 13° ESE 02:50:28 10° ENE visible
28 Aug 2.7 04:32:55 22° SSW 04:37:03 71° ESE 04:43:59 10° NE visible
29 Aug 3.3 03:46:30 29° SSE 03:49:04 44° ESE 03:55:30 10° NE visible
29 Aug 3.2 05:33:42 10° WSW 05:39:43 47° NW 05:46:37 10° NE visible
30 Aug 3.9 03:00:03 24° SE 03:01:18 26° ESE 03:06:42 10° ENE visible
30 Aug 2.7 04:47:14 24° SW 04:51:15 69° NW 04:58:21 10° NE visible
31 Aug 4.6 02:13:33 15° ESE 02:13:42 15° ESE 02:17:07 10° ENE visible
31 Aug 2.6 04:00:45 43° SSW 04:03:01 79° SE 04:10:02 10° NE visible
31 Aug 3.8 05:48:41 10° W 05:54:28 32° NNW 06:00:56 10° NNE visible
01 Sep 2.9 03:14:13 47° SE 03:15:00 49° ESE 03:21:35 10° NE visible
01 Sep 3.3 05:01:24 19° WSW 05:05:47 44° NW 05:12:37 10° NNE visible
02 Sep 3.8 02:27:39 29° ESE 02:27:39 29° ESE 02:32:53 10° NE visible
02 Sep 2.7 04:14:50 38° WSW 04:17:18 63° NW 04:24:21 10° NE visible
03 Sep 4.6 01:41:03 16° E 01:41:03 16° E 01:43:34 10° ENE visible
03 Sep 2.4 03:28:14 72° SSW 03:29:01 87° SE 03:36:04 10° NE visible
03 Sep 3.9 05:15:25 12° W 05:20:37 31° NNW 05:26:57 10° NNE visible
04 Sep 3.0 02:41:37 53° E 02:41:37 53° E 02:47:39 10° NE visible
04 Sep 3.4 04:28:47 26° W 04:31:53 40° NW 04:38:39 10° NNE visible
